QPF
0.08 0.07 0.05 0.03 0.01 0.01 0.01 0.01 0.01 0.02 0.02 0.03 0.02 0.02 0.02 0.03 0.03 0.08 0.13 0.10 0.09 0.11 0.10 0.10 0.11 0.15 0.16 0.19 0.29 0.20 0.13 0.12 0.10 0.09 0.09 0.09 0.08 0.06 0.03 0.03 0.03 0.03 0.04
0.05 0.03 0.03 0.02 0.01 0.01 0.01 0.01 0.01 0.01 0.01 0.01 0.03 0.03 0.02 0.03 0.04 0.06 0.07 0.07 0.08 0.10 0.10 0.09 0.08 0.09 0.11 0.16 0.28 0.26 0.22 0.18 0.13 0.12 0.12 0.09 0.09 0.09 0.05 0.04 0.05 0.05 0.05
0.04 0.02 0.01 0.01 0.01 0.01 0.01 0.01 0.01 0.01 0.00 0.00 0.01 0.02 0.02 0.03 0.04 0.04 0.03 0.03 0.05 0.08 0.10 0.09 0.07 0.07 0.07 0.09 0.14 0.17 0.23 0.25 0.17 0.12 0.11 0.11 0.09 0.08 0.06 0.05 0.05 0.05 0.05
0.04 0.03 0.02 0.02 0.01 0.01 0.01 0.01 0.01 0.00 0.00 0.00 0.01 0.01 0.02 0.03 0.03 0.04 0.03 0.02 0.03 0.04 0.06 0.09 0.10 0.09 0.08 0.11 0.12 0.17 0.26 0.23 0.12 0.08 0.08 0.10 0.10 0.06 0.05 0.06 0.07 0.07 0.06
0.02 0.04 0.05 0.04 0.02 0.01 0.01 0.01 0.00 0.00 0.00 0.00 0.01 0.01 0.02 0.03 0.02 0.04 0.05 0.02 0.02 0.02 0.03 0.06 0.09 0.09 0.10 0.13 0.13 0.17 0.28 0.19 0.10 0.08 0.06 0.06 0.07 0.07 0.07 0.07 0.07 0.07 0.06
0.01 0.02 0.04 0.05 0.05 0.03 0.02 0.02 0.01 0.01 0.00 0.01 0.01 0.01 0.01 0.01 0.02 0.02 0.07 0.05 0.02 0.01 0.02 0.03 0.05 0.06 0.11 0.16 0.17 0.15 0.18 0.18 0.13 0.09 0.06 0.05 0.05 0.08 0.07 0.07 0.07 0.07 0.06
0.00 0.01 0.02 0.04 0.05 0.05 0.05 0.04 0.03 0.02 0.02 0.01 0.01 0.01 0.00 0.01 0.01 0.02 0.06 0.09 0.04 0.02 0.02 0.03 0.03 0.04 0.08 0.13 0.19 0.16 0.10 0.11 0.12 0.10 0.09 0.09 0.09 0.10 0.09 0.07 0.07 0.06 0.06
0.00 0.00 0.01 0.02 0.03 0.03 0.04 0.05 0.04 0.04 0.03 0.01 0.01 0.00 0.00 0.00 0.01 0.01 0.02 0.05 0.07 0.05 0.04 0.04 0.04 0.05 0.06 0.08 0.10 0.11 0.09 0.09 0.08 0.06 0.06 0.08 0.08 0.08 0.08 0.07 0.05 0.05 0.04
0.01 0.00 0.00 0.01 0.01 0.01 0.02 0.02 0.03 0.02 0.02 0.02 0.01 0.01 0.01 0.01 0.01 0.01 0.01 0.02 0.05 0.06 0.05 0.05 0.04 0.05 0.05 0.07 0.07 0.07 0.08 0.07 0.07 0.07 0.07 0.08 0.08 0.07 0.06 0.05 0.05 0.05 0.06
0.01 0.00 0.00 0.01 0.01 0.01 0.01 0.01 0.01 0.01 0.01 0.02 0.02 0.02 0.02 0.02 0.01 0.01 0.01 0.02 0.02 0.04 0.05 0.05 0.05 0.03 0.03 0.04 0.05 0.05 0.05 0.06 0.06 0.07 0.09 0.10 0.10 0.09 0.08 0.07 0.07 0.07 0.07
0.01 0.01 0.01 0.01 0.01 0.01 0.00 0.00 0.00 0.00 0.01 0.02 0.02 0.03 0.02 0.02 0.01 0.01 0.02 0.03 0.03 0.02 0.02 0.03 0.04 0.03 0.02 0.03 0.03 0.05 0.05 0.04 0.04 0.06 0.08 0.10 0.09 0.07 0.07 0.08 0.10 0.09 0.07
0.02 0.02 0.01 0.01 0.01 0.01 0.01 0.00 0.00 0.00 0.00 0.01 0.02 0.02 0.02 0.01 0.01 0.01 0.02 0.02 0.01 0.01 0.01 0.02 0.03 0.02 0.02 0.03 0.04 0.04 0.05 0.04 0.03 0.04 0.05 0.05 0.06 0.07 0.08 0.07 0.10 0.09 0.06
0.01 0.02 0.02 0.01 0.01 0.01 0.01 0.01 0.00 0.00 0.00 0.00 0.00 0.01 0.01 0.01 0.01 0.01 0.01 0.01 0.01 0.01 0.01 0.01 0.01 0.02 0.02 0.02 0.03 0.04 0.04 0.04 0.03 0.02 0.03 0.03 0.03 0.04 0.08 0.08 0.09 0.09 0.06
0.02 0.02 0.01 0.01 0.01 0.01 0.01 0.00 0.00 0.00 0.00 0.00 0.00 0.00 0.00 0.00 0.01 0.01 0.01 0.01 0.01 0.01 0.01 0.01 0.02 0.02 0.02 0.01 0.02 0.03 0.03 0.03 0.03 0.03 0.03 0.02 0.02 0.02 0.04 0.07 0.07 0.08 0.07
0.03 0.01 0.01 0.02 0.02 0.01 0.01 0.01 0.01 0.01 0.01 0.01 0.00 0.00 0.00 0.00 0.00 0.01 0.01 0.01 0.01 0.02 0.02 0.02 0.02 0.02 0.01 0.01 0.01 0.01 0.02 0.02 0.02 0.03 0.03 0.02 0.01 0.01 0.01 0.02 0.04 0.08 0.08
0.02 0.01 0.02 0.01 0.01 0.02 0.02 0.03 0.02 0.01 0.01 0.01 0.00 0.01 0.01 0.00 0.00 0.01 0.01 0.01 0.01 0.01 0.01 0.02 0.02 0.01 0.01 0.01 0.01 0.00 0.01 0.02 0.02 0.02 0.02 0.02 0.01 0.01 0.01 0.01 0.02 0.04 0.07
0.02 0.02 0.02 0.01 0.01 0.01 0.02 0.03 0.03 0.04 0.03 0.02 0.01 0.01 0.01 0.01 0.00 0.01 0.01 0.01 0.01 0.01 0.00 0.01 0.02 0.02 0.01 0.01 0.01 0.00 0.00 0.01 0.01 0.01 0.02 0.02 0.02 0.01 0.01 0.01 0.01 0.02 0.04
0.01 0.02 0.01 0.01 0.01 0.01 0.01 0.02 0.04 0.06 0.05 0.04 0.02 0.01 0.00 0.00 0.00 0.00 0.01 0.01 0.01 0.01 0.01 0.01 0.01 0.01 0.02 0.02 0.01 0.01 0.00 0.00 0.01 0.01 0.02 0.02 0.02 0.02 0.02 0.01 0.01 0.01 0.02
0.01 0.01 0.01 0.01 0.01 0.00 0.01 0.01 0.02 0.06 0.07 0.06 0.04 0.03 0.02 0.02 0.02 0.01 0.01 0.01 0.01 0.02 0.02 0.01 0.01 0.01 0.01 0.01 0.01 0.01 0.01 0.01 0.01 0.01 0.02 0.02 0.02 0.02 0.02 0.02 0.02 0.02 0.02
0.01 0.01 0.01 0.01 0.00 0.00 0.01 0.01 0.02 0.03 0.07 0.10 0.10 0.07 0.04 0.02 0.02 0.02 0.01 0.01 0.01 0.02 0.03 0.03 0.02 0.02 0.01 0.01 0.01 0.01 0.01 0.01 0.01 0.01 0.01 0.01 0.01 0.01 0.01 0.02 0.03 0.03 0.03
0.02 0.01 0.01 0.01 0.01 0.01 0.01 0.01 0.02 0.02 0.03 0.07 0.08 0.07 0.04 0.02 0.02 0.02 0.02 0.02 0.02 0.02 0.02 0.03 0.04 0.03 0.02 0.02 0.01 0.01 0.02 0.02 0.02 0.01 0.01 0.01 0.00 0.00 0.01 0.02 0.04 0.05 0.04
0.02 0.02 0.01 0.01 0.01 0.00 0.01 0.01 0.02 0.02 0.02 0.03 0.04 0.04 0.05 0.03 0.03 0.02 0.02 0.02 0.03 0.02 0.02 0.03 0.04 0.04 0.04 0.04 0.04 0.03 0.02 0.02 0.02 0.02 0.01 0.01 0.01 0.01 0.01 0.01 0.02 0.04 0.03
0.03 0.02 0.02 0.01 0.00 0.00 0.01 0.02 0.02 0.01 0.01 0.02 0.02 0.03 0.04 0.04 0.02 0.01 0.01 0.01 0.01 0.02 0.02 0.02 0.03 0.04 0.04 0.05 0.06 0.06 0.04 0.03 0.03 0.03 0.02 0.01 0.01 0.01 0.01 0.02 0.02 0.02 0.02
0.03 0.03 0.02 0.01 0.01 0.01 0.01 0.02 0.02 0.01 0.01 0.02 0.03 0.02 0.02 0.03 0.03 0.02 0.01 0.01 0.01 0.02 0.02 0.02 0.02 0.03 0.04 0.06 0.07 0.08 0.07 0.05 0.04 0.03 0.03 0.03 0.02 0.01 0.01 0.01 0.01 0.01 0.01
0.03 0.03 0.03 0.03 0.02 0.02 0.02 0.02 0.03 0.01 0.00 0.01 0.02 0.02 0.02 0.03 0.05 0.04 0.01 0.01 0.01 0.02 0.02 0.02 0.02 0.02 0.02 0.02 0.04 0.07 0.08 0.07 0.05 0.03 0.02 0.02 0.02 0.01 0.01 0.00 0.01 0.00 0.01
0.03 0.03 0.04 0.04 0.03 0.03 0.03 0.02 0.02 0.01 0.01 0.00 0.01 0.01 0.03 0.02 0.05 0.06 0.03 0.01 0.01 0.01 0.02 0.01 0.01 0.01 0.01 0.01 0.01 0.02 0.05 0.08 0.06 0.03 0.02 0.02 0.02 0.02 0.01 0.00 0.00 0.00 0.00
MSLP
1018.59 1018.74 1018.86 1018.99 1019.14 1019.32 1019.56 1019.84 1020.14 1020.45 1020.73 1020.97 1021.16 1021.29 1021.38 1021.44 1021.48 1021.50 1021.50 1021.50 1021.48 1021.45 1021.41 1021.38 1021.37 1021.37 1021.40 1021.44 1021.46 1021.46 1021.42 1021.32 1021.19 1021.03 1020.87 1020.73 1020.64 1020.58 1020.55 1020.53 1020.49 1020.40 1020.27
1019.40 1019.54 1019.69 1019.85 1020.04 1020.29 1020.58 1020.92 1021.28 1021.63 1021.95 1022.22 1022.44 1022.60 1022.71 1022.78 1022.82 1022.83 1022.81 1022.77 1022.71 1022.63 1022.53 1022.44 1022.37 1022.32 1022.29 1022.28 1022.27 1022.24 1022.18 1022.07 1021.92 1021.75 1021.58 1021.43 1021.31 1021.24 1021.20 1021.18 1021.14 1021.07 1020.96
1020.15 1020.29 1020.46 1020.66 1020.90 1021.21 1021.56 1021.96 1022.37 1022.76 1023.13 1023.44 1023.69 1023.88 1024.02 1024.12 1024.17 1024.18 1024.15 1024.08 1023.97 1023.83 1023.67 1023.50 1023.36 1023.24 1023.15 1023.09 1023.04 1022.99 1022.91 1022.79 1022.64 1022.46 1022.28 1022.11 1021.98 1021.89 1021.84 1021.81 1021.79 1021.74 1021.65
1020.91 1021.05 1021.23 1021.47 1021.76 1022.11 1022.51 1022.95 1023.39 1023.82 1024.22 1024.56 1024.85 1025.08 1025.26 1025.39 1025.47 1025.50 1025.47 1025.38 1025.23 1025.03 1024.79 1024.55 1024.32 1024.12 1023.96 1023.84 1023.75 1023.66 1023.57 1023.45 1023.29 1023.11 1022.93 1022.75 1022.60 1022.50 1022.44 1022.41 1022.39 1022.37 1022.31
1021.70 1021.85 1022.05 1022.30 1022.62 1023.00 1023.43 1023.88 1024.33 1024.77 1025.18 1025.54 1025.87 1026.14 1026.37 1026.55 1026.68 1026.74 1026.73 1026.63 1026.46 1026.21 1025.90 1025.58 1025.25 1024.96 1024.72 1024.53 1024.39 1024.27 1024.15 1024.02 1023.87 1023.69 1023.50 1023.32 1023.16 1023.05 1022.98 1022.96 1022.95 1022.95 1022.92
1022.53 1022.68 1022.89 1023.16 1023.48 1023.86 1024.28 1024.72 1025.15 1025.57 1025.97 1026.34 1026.69 1027.01 1027.30 1027.54 1027.74 1027.86 1027.89 1027.81 1027.63 1027.35 1026.99 1026.59 1026.18 1025.80 1025.47 1025.20 1024.99 1024.82 1024.67 1024.53 1024.38 1024.20 1024.02 1023.84 1023.69 1023.57 1023.50 1023.47 1023.48 1023.49 1023.48
1023.36 1023.51 1023.72 1023.99 1024.30 1024.66 1025.04 1025.43 1025.82 1026.20 1026.57 1026.93 1027.30 1027.65 1028.00 1028.33 1028.61 1028.81 1028.90 1028.87 1028.72 1028.43 1028.05 1027.59 1027.11 1026.65 1026.23 1025.88 1025.60 1025.37 1025.19 1025.03 1024.87 1024.70 1024.52 1024.36 1024.21 1024.10 1024.03 1024.00 1024.01 1024.03 1024.04
1024.14 1024.29 1024.49 1024.74 1025.02 1025.34 1025.66 1025.99 1026.31 1026.64 1026.96 1027.31 1027.68 1028.07 1028.48 1028.89 1029.26 1029.55 1029.74 1029.78 1029.68 1029.43 1029.05 1028.58 1028.06 1027.54 1027.05 1026.62 1026.27 1025.98 1025.75 1025.56 1025.39 1025.23 1025.06 1024.91 1024.78 1024.68 1024.61 1024.59 1024.59 1024.61 1024.62
1024.81 1024.95 1025.14 1025.36 1025.61 1025.87 1026.13 1026.38 1026.64 1026.90 1027.18 1027.49 1027.86 1028.28 1028.74 1029.22 1029.67 1030.06 1030.35 1030.50 1030.48 1030.30 1029.97 1029.53 1029.01 1028.46 1027.93 1027.45 1027.03 1026.69 1026.41 1026.19 1026.00 1025.83 1025.68 1025.55 1025.43 1025.34 1025.29 1025.26 1025.25 1025.26 1025.25
1025.35 1025.47 1025.63 1025.82 1026.03 1026.24 1026.44 1026.63 1026.82 1027.02 1027.25 1027.53 1027.89 1028.31 1028.80 1029.33 1029.85 1030.33 1030.72 1030.97 1031.06 1030.99 1030.75 1030.38 1029.91 1029.38 1028.85 1028.34 1027.88 1027.49 1027.17 1026.91 1026.70 1026.53 1026.38 1026.27 1026.17 1026.10 1026.05 1026.02 1026.00 1025.98 1025.95
1025.74 1025.85 1025.99 1026.15 1026.32 1026.48 1026.63 1026.77 1026.90 1027.05 1027.24 1027.49 1027.81 1028.23 1028.72 1029.26 1029.83 1030.37 1030.84 1031.19 1031.40 1031.46 1031.35 1031.09 1030.71 1030.26 1029.76 1029.26 1028.79 1028.36 1028.00 1027.70 1027.47 1027.29 1027.15 1027.05 1026.97 1026.92 1026.88 1026.84 1026.80 1026.75 1026.69
1026.02 1026.11 1026.22 1026.35 1026.49 1026.62 1026.74 1026.84 1026.94 1027.06 1027.21 1027.42 1027.70 1028.08 1028.54 1029.06 1029.63 1030.19 1030.72 1031.16 1031.49 1031.68 1031.72 1031.61 1031.37 1031.03 1030.61 1030.15 1029.69 1029.26 1028.87 1028.54 1028.28 1028.08 1027.94 1027.85 1027.79 1027.75 1027.72 1027.68 1027.63 1027.55 1027.45
1026.22 1026.28 1026.37 1026.48 1026.60 1026.71 1026.81 1026.90 1026.98 1027.08 1027.20 1027.37 1027.60 1027.92 1028.32 1028.79 1029.32 1029.87 1030.41 1030.92 1031.35 1031.67 1031.87 1031.93 1031.85 1031.65 1031.35 1030.97 1030.55 1030.12 1029.72 1029.37 1029.08 1028.87 1028.72 1028.64 1028.59 1028.57 1028.55 1028.51 1028.45 1028.36 1028.23
1026.37 1026.42 1026.48 1026.58 1026.68 1026.78 1026.88 1026.97 1027.05 1027.13 1027.23 1027.37 1027.55 1027.80 1028.11 1028.50 1028.96 1029.46 1029.99 1030.53 1031.03 1031.47 1031.82 1032.06 1032.16 1032.12 1031.95 1031.67 1031.32 1030.92 1030.52 1030.15 1029.85 1029.62 1029.46 1029.38 1029.35 1029.34 1029.34 1029.32 1029.25 1029.15 1029.00
1026.50 1026.52 1026.58 1026.65 1026.75 1026.85 1026.95 1027.05 1027.15 1027.23 1027.32 1027.43 1027.56 1027.73 1027.96 1028.25 1028.61 1029.05 1029.54 1030.08 1030.63 1031.17 1031.65 1032.04 1032.31 1032.44 1032.42 1032.26 1031.99 1031.64 1031.27 1030.90 1030.58 1030.33 1030.17 1030.09 1030.07 1030.08 1030.10 1030.09 1030.04 1029.93 1029.78
1026.59 1026.61 1026.65 1026.72 1026.81 1026.92 1027.03 1027.15 1027.26 1027.36 1027.45 1027.53 1027.63 1027.73 1027.88 1028.08 1028.35 1028.70 1029.14 1029.66 1030.24 1030.84 1031.43 1031.96 1032.38 1032.66 1032.79 1032.75 1032.57 1032.29 1031.95 1031.59 1031.28 1031.02 1030.86 1030.78 1030.77 1030.80 1030.84 1030.85 1030.82 1030.73 1030.58
1026.63 1026.66 1026.70 1026.76 1026.85 1026.96 1027.09 1027.22 1027.35 1027.47 1027.58 1027.66 1027.73 1027.80 1027.88 1028.00 1028.19 1028.48 1028.86 1029.35 1029.92 1030.56 1031.22 1031.85 1032.40 1032.81 1033.06 1033.15 1033.07 1032.87 1032.58 1032.26 1031.95 1031.71 1031.55 1031.48 1031.48 1031.52 1031.58 1031.61 1031.60 1031.52 1031.39
1026.60 1026.64 1026.69 1026.75 1026.85 1026.96 1027.10 1027.25 1027.40 1027.55 1027.67 1027.76 1027.83 1027.88 1027.93 1028.01 1028.15 1028.37 1028.70 1029.15 1029.72 1030.37 1031.06 1031.76 1032.39 1032.90 1033.26 1033.46 1033.48 1033.36 1033.14 1032.87 1032.60 1032.38 1032.23 1032.17 1032.17 1032.22 1032.29 1032.34 1032.34 1032.29 1032.18
1026.46 1026.53 1026.60 1026.68 1026.78 1026.90 1027.05 1027.21 1027.38 1027.55 1027.69 1027.81 1027.89 1027.95 1028.00 1028.06 1028.17 1028.36 1028.65 1029.07 1029.60 1030.24 1030.94 1031.66 1032.33 1032.92 1033.36 1033.65 1033.77 1033.74 1033.61 1033.40 1033.19 1033.00 1032.87 1032.82 1032.82 1032.87 1032.94 1032.99 1033.01 1032.97 1032.88
1026.20 1026.31 1026.41 1026.51 1026.63 1026.76 1026.92 1027.09 1027.27 1027.46 1027.63 1027.77 1027.88 1027.97 1028.04 1028.11 1028.21 1028.39 1028.65 1029.03 1029.52 1030.12 1030.80 1031.51 1032.20 1032.82 1033.32 1033.68 1033.89 1033.96 1033.91 1033.80 1033.65 1033.51 1033.41 1033.36 1033.37 1033.40 1033.46 1033.50 1033.52 1033.49 1033.42
1025.82 1025.96 1026.10 1026.24 1026.38 1026.53 1026.70 1026.88 1027.07 1027.27 1027.46 1027.63 1027.78 1027.90 1028.00 1028.10 1028.22 1028.39 1028.64 1028.98 1029.43 1029.98 1030.60 1031.27 1031.94 1032.56 1033.09 1033.51 1033.80 1033.96 1034.01 1033.99 1033.92 1033.84 1033.78 1033.74 1033.74 1033.76 1033.79 1033.81 1033.81 1033.78 1033.72
1025.30 1025.49 1025.68 1025.85 1026.02 1026.20 1026.37 1026.56 1026.76 1026.97 1027.17 1027.37 1027.56 1027.72 1027.86 1028.00 1028.15 1028.32 1028.56 1028.86 1029.26 1029.74 1030.30 1030.91 1031.53 1032.13 1032.67 1033.12 1033.47 1033.72 1033.87 1033.94 1033.96 1033.94 1033.92 1033.90 1033.89 1033.89 1033.89 1033.88 1033.86 1033.82 1033.77
1024.67 1024.90 1025.13 1025.34 1025.54 1025.74 1025.93 1026.13 1026.34 1026.56 1026.78 1027.01 1027.22 1027.43 1027.62 1027.79 1027.97 1028.16 1028.38 1028.66 1029.00 1029.41 1029.89 1030.42 1030.98 1031.54 1032.06 1032.54 1032.94 1033.26 1033.49 1033.66 1033.76 1033.82 1033.84 1033.85 1033.83 1033.81 1033.78 1033.73 1033.68 1033.63 1033.58
1023.94 1024.19 1024.44 1024.69 1024.93 1025.15 1025.36 1025.58 1025.80 1026.04 1026.28 1026.53 1026.79 1027.03 1027.27 1027.49 1027.70 1027.91 1028.13 1028.38 1028.68 1029.02 1029.42 1029.87 1030.35 1030.86 1031.36 1031.83 1032.26 1032.63 1032.95 1033.19 1033.38 1033.50 1033.57 1033.60 1033.59 1033.56 1033.50 1033.43 1033.35 1033.28 1033.22
1023.15 1023.39 1023.65 1023.91 1024.17 1024.41 1024.65 1024.89 1025.14 1025.40 1025.67 1025.96 1026.26 1026.56 1026.84 1027.11 1027.37 1027.60 1027.84 1028.08 1028.34 1028.63 1028.96 1029.34 1029.75 1030.19 1030.65 1031.11 1031.55 1031.96 1032.32 1032.63 1032.88 1033.07 1033.19 1033.25 1033.26 1033.22 1033.15 1033.06 1032.96 1032.87 1032.81
1022.33 1022.52 1022.76 1023.01 1023.27 1023.53 1023.80 1024.06 1024.35 1024.65 1024.97 1025.31 1025.66 1026.02 1026.36 1026.69 1027.00 1027.28 1027.54 1027.79 1028.04 1028.30 1028.59 1028.90 1029.25 1029.64 1030.05 1030.48 1030.92 1031.33 1031.73 1032.08 1032.37 1032.61 1032.77 1032.87 1032.90 1032.88 1032.81 1032.72 1032.61 1032.51 1032.45
Thickness
5714 5714 5713 5713 5713 5712 5712 5711 5711 5711 5710 5710 5710 5709 5709 5710 5711 5712 5713 5714 5716 5717 5717 5718 5719 5720 5720 5720 5721 5720 5720 5720 5719 5718 5718 5717 5718 5718 5718 5718 5718 5719 5720
5710 5709 5708 5708 5708 5707 5707 5706 5706 5705 5704 5704 5703 5703 5703 5703 5704 5705 5706 5707 5709 5710 5711 5712 5713 5714 5715 5715 5715 5715 5715 5714 5714 5713 5712 5712 5712 5713 5712 5712 5713 5713 5714
5706 5705 5704 5703 5703 5703 5702 5702 5701 5700 5699 5698 5696 5696 5696 5696 5697 5698 5699 5700 5702 5703 5705 5706 5707 5708 5709 5709 5709 5709 5708 5707 5707 5706 5707 5707 5707 5707 5707 5707 5707 5707 5708
5702 5701 5700 5699 5698 5698 5698 5697 5695 5693 5692 5690 5689 5689 5689 5690 5691 5692 5693 5693 5694 5695 5697 5699 5700 5701 5702 5702 5702 5702 5702 5702 5701 5701 5701 5701 5701 5701 5701 5701 5701 5701 5702
5698 5697 5696 5695 5694 5694 5692 5692 5689 5688 5686 5684 5683 5683 5683 5683 5684 5685 5686 5686 5687 5688 5689 5691 5692 5694 5695 5695 5696 5696 5695 5695 5696 5695 5695 5695 5695 5695 5695 5695 5695 5696 5696
5694 5693 5692 5691 5690 5689 5687 5686 5684 5682 5680 5679 5679 5677 5676 5677 5678 5678 5678 5679 5680 5681 5682 5683 5684 5686 5687 5688 5689 5689 5689 5689 5689 5689 5689 5689 5689 5689 5689 5689 5690 5690 5690
5690 5689 5688 5686 5685 5684 5682 5680 5679 5676 5674 5673 5672 5670 5670 5670 5671 5671 5672 5672 5673 5674 5675 5676 5677 5678 5679 5680 5681 5682 5683 5683 5683 5683 5683 5682 5682 5682 5683 5683 5683 5684 5685
5686 5685 5684 5682 5681 5679 5677 5675 5673 5670 5669 5668 5666 5663 5660 5660 5662 5664 5664 5665 5666 5667 5668 5668 5669 5670 5672 5672 5673 5674 5675 5675 5676 5676 5676 5675 5675 5676 5676 5676 5677 5678 5679
5681 5681 5679 5678 5676 5674 5672 5670 5669 5666 5663 5662 5661 5659 5654 5651 5652 5655 5656 5657 5658 5659 5660 5662 5663 5664 5665 5666 5666 5667 5668 5669 5669 5669 5669 5669 5669 5669 5669 5670 5671 5671 5672
5677 5676 5675 5673 5672 5670 5668 5666 5665 5663 5660 5657 5656 5655 5653 5651 5647 5646 5648 5650 5651 5652 5653 5655 5656 5657 5658 5659 5659 5660 5661 5662 5662 5663 5663 5662 5663 5663 5663 5664 5664 5665 5666
5672 5672 5671 5669 5667 5666 5664 5662 5660 5658 5657 5654 5652 5650 5648 5646 5644 5641 5639 5641 5644 5646 5647 5648 5649 5651 5652 5652 5653 5654 5655 5656 5656 5656 5656 5656 5656 5656 5657 5658 5658 5660 5660
5667 5667 5666 5665 5663 5661 5660 5658 5656 5654 5653 5651 5649 5647 5645 5643 5640 5638 5635 5634 5635 5638 5641 5642 5643 5644 5645 5646 5646 5648 5649 5649 5649 5650 5649 5649 5650 5650 5651 5652 5652 5653 5654
5662 5662 5662 5660 5659 5658 5656 5655 5652 5650 5649 5647 5645 5644 5643 5642 5640 5637 5634 5631 5630 5631 5634 5635 5636 5637 5639 5639 5640 5641 5642 5643 5643 5643 5643 5643 5643 5644 5644 5645 5646 5647 5648
5660 5659 5658 5657 5655 5654 5653 5651 5649 5647 5645 5644 5643 5641 5640 5639 5638 5636 5633 5629 5625 5625 5626 5628 5630 5631 5632 5633 5634 5635 5635 5636 5636 5637 5637 5637 5637 5637 5638 5639 5639 5640 5642
5657 5656 5655 5653 5651 5650 5648 5646 5644 5642 5641 5640 5638 5637 5636 5635 5634 5633 5632 5630 5625 5620 5620 5622 5623 5625 5627 5628 5629 5629 5630 5630 5630 5631 5631 5631 5631 5631 5632 5633 5633 5634 5635
5654 5652 5650 5649 5647 5645 5643 5642 5640 5638 5637 5635 5634 5633 5632 5631 5630 5629 5628 5626 5625 5621 5617 5617 5618 5619 5621 5622 5622 5623 5624 5624 5625 5625 5625 5625 5625 5626 5626 5627 5627 5628 5629
5650 5648 5646 5645 5643 5641 5639 5637 5635 5633 5632 5630 5630 5629 5628 5627 5626 5625 5624 5622 5620 5618 5614 5613 5613 5614 5615 5616 5616 5617 5618 5619 5619 5619 5619 5619 5620 5620 5620 5621 5621 5622 5623
5646 5644 5642 5640 5638 5636 5634 5633 5630 5629 5627 5626 5625 5624 5624 5623 5622 5621 5619 5618 5616 5615 5613 5610 5608 5608 5609 5610 5611 5611 5612 5613 5613 5613 5613 5614 5614 5614 5614 5614 5615 5615 5616
5641 5639 5638 5636 5634 5632 5630 5628 5626 5624 5622 5621 5620 5620 5620 5618 5617 5616 5615 5614 5613 5612 5609 5607 5605 5604 5603 5604 5604 5605 5606 5606 5607 5607 5607 5607 5608 5608 5609 5609 5609 5609 5609
5636 5635 5633 5631 5629 5628 5626 5624 5622 5620 5618 5617 5617 5616 5615 5614 5614 5613 5612 5610 5608 5606 5604 5602 5601 5600 5599 5598 5598 5598 5598 5599 5599 5601 5601 5601 5602 5602 5603 5603 5603 5603 5603
5632 5630 5628 5626 5624 5623 5622 5619 5617 5616 5614 5612 5611 5611 5611 5611 5611 5610 5609 5607 5605 5602 5600 5598 5597 5596 5595 5594 5594 5594 5593 5592 5593 5593 5594 5595 5595 5596 5596 5596 5597 5597 5597
5626 5624 5623 5621 5619 5619 5618 5616 5614 5611 5609 5607 5606 5605 5605 5606 5606 5606 5605 5604 5603 5600 5597 5595 5593 5592 5592 5592 5591 5590 5588 5587 5586 5588 5587 5587 5588 5589 5589 5590 5591 5591 5591
5620 5618 5617 5615 5614 5613 5613 5611 5609 5607 5604 5603 5601 5600 5600 5601 5600 5599 5599 5599 5598 5597 5596 5594 5591 5590 5590 5589 5587 5586 5584 5583 5583 5583 5582 5581 5582 5582 5584 5584 5585 5585 5585
5614 5612 5610 5609 5608 5608 5607 5606 5604 5600 5598 5597 5596 5595 5594 5594 5594 5594 5593 5592 5591 5591 5591 5590 5589 5589 5588 5587 5585 5584 5582 5579 5578 5578 5577 5576 5576 5576 5578 5578 5579 5579 5579
5607 5606 5604 5603 5601 5601 5601 5600 5598 5594 5592 5590 5590 5589 5589 5588 5589 5588 5586 5585 5584 5585 5585 5585 5585 5584 5584 5582 5581 5578 5575 5574 5574 5573 5572 5571 5571 5571 5571 5572 5572 5572 5572
5601 5600 5598 5597 5596 5595 5595 5594 5592 5588 5585 5584 5583 5583 5583 5583 5583 5582 5580 5579 5577 5578 5578 5578 5578 5577 5577 5576 5575 5574 5572 5570 5569 5568 5568 5566 5565 5564 5565 5565 5565 5565 5565